Weather observations for the past three days for
Muskogee-Davis Regional Airport
Imperial (Metric)
Date Time (cdt) Wind (mph) Vis. (mi.) Weather Sky Cond. Temperature (ºF) Relative Humidity Wind Chill (°F) Heat Index (°F) Pressure Precipitation (in)
Air Dwpt 6 hour altimeter (in) sea level (mb) 1 hr 3 hr 6 hr
Max. Min.
24 00:53 S 6 10.00 Fair CLR 80.1 75.9 93.9 80.1 87% 85 29.93 1012.6
23 23:53 SE 5 10.00 Fair CLR 81 77 88% 88 29.93 1012.7
23 22:53 S 5 10.00 Fair CLR 82 75.9 82% 89 29.92 1012.3
23 21:53 Calm 10.00 Fair CLR 84 75 74% 92 29.9 1011.7
23 20:53 Calm 10.00 Fair CLR 87.1 75 67% 97 29.89 1011.2
23 19:53 SE 3 10.00 Fair CLR 91.9 75 58% 103 29.89 1011.1
23 18:53 S 3 10.00 Fair CLR 93.9 73 93.9 90 51% 103 29.88 1010.9
23 17:53 S 3 10.00 Fair CLR 93.9 75 54% 106 29.89 1011.1
23 16:53 Vrbl 3 10.00 Fair CLR 93 75 56% 104 29.9 1011.6
23 15:53 Calm 10.00 Fair CLR 93 73.9 54% 103 29.91 1012.0
23 14:53 SW 6 10.00 Fair CLR 93 75.9 58% 106 29.93 1012.5
23 13:53 S 5 10.00 Fair CLR 90 73.9 59% 99 29.94 1013.1
23 12:53 Vrbl 3 10.00 Fair CLR 91 73.9 91 80.1 57% 101 29.95 1013.3
23 11:53 SW 9 10.00 Fair CLR 89.1 73.9 61% 98 29.96 1013.5
23 10:53 SW 6 10.00 Fair CLR 87.1 73 63% 95 29.97 1013.9
23 09:53 SW 9 10.00 Partly Cloudy SCT085 84.9 72 65% 91 29.97 1013.9
23 08:53 S 8 10.00 Mostly Cloudy BKN085 82.9 72 70% 88 29.98 1014.2
23 07:53 Calm 10.00 Mostly Cloudy BKN085 BKN120 81 71.1 72% 85 29.97 1014.0
23 06:53 Calm 10.00 Mostly Cloudy BKN080 80.1 70 82 79 71% 83 29.96 1013.4
23 05:53 S 7 10.00 Mostly Cloudy BKN090 79 69.1 72% 82 29.94 1013.0
23 04:53 S 5 10.00 Overcast OVC095 80.1 69.1 69% 83 29.93 1012.6
23 03:53 S 6 10.00 A Few Clouds FEW095 80.1 69.1 69% 83 29.93 1012.4
23 02:53 S 7 10.00 Fair CLR 80.1 69.1 69% 83 29.93 1012.5
23 01:53 S 8 10.00 Fair CLR 80.1 70 71% 83 29.93 1012.5
23 00:53 S 8 10.00 Fair CLR 82 70 91 80.1 67% 86 29.93 1012.7
22 23:53 S 7 10.00 Fair CLR 82 71.1 69% 86 29.94 1013.1
22 22:53 S 6 10.00 Fair CLR 80.1 72 76% 84 29.94 1013.0
22 21:53 S 5 10.00 Fair CLR 82 70 67% 86 29.93 1012.8
22 20:53 S 6 10.00 Fair CLR 84 71.1 65% 89 29.92 1012.2
22 19:53 S 7 10.00 Fair CLR 87.1 72 61% 94 29.93 1012.5
22 18:53 S 10 10.00 Fair CLR 91 72 93 89.1 54% 99 29.94 1012.9
22 17:53 S 10 G 20 10.00 Fair CLR 91 72 54% 99 29.95 1013.2
22 16:53 S 12 G 20 10.00 A Few Clouds FEW050 91 72 54% 99 29.96 1013.6
22 15:53 S 13 G 21 10.00 Fair CLR 91.9 73 54% 101 29.97 1014.0
22 14:53 S 13 G 21 10.00 Partly Cloudy SCT047 90 72 56% 97 29.99 1014.8
22 13:53 SW 10 G 20 10.00 Fair CLR 91 72 54% 99 30.02 1015.5
22 12:53 S 13 10.00 Fair CLR 89.1 71.1 89.1 72 55% 95 30.04 1016.3
22 11:53 S 9 G 23 10.00 Fair CLR 87.1 72 61% 94 30.04 1016.4
22 10:53 SW 12 10.00 Fair CLR 87.1 72 61% 94 30.06 1017.1
22 09:53 S 13 G 20 10.00 Fair CLR 84 70 63% 88 30.08 1017.6
22 08:53 S 6 10.00 Fair CLR 80.1 69.1 69% 83 30.08 1017.7
22 07:53 S 7 10.00 Fair CLR 75.9 69.1 79% 77 30.08 1017.8
22 06:53 SE 3 10.00 Fair CLR 72 66.9 73 70 84% 30.09 1018.0
22 05:53 SE 6 10.00 Fair CLR 70 66 87% 30.09 1017.9
22 04:53 SE 6 10.00 Fair CLR 70 66.9 90% 30.09 1017.9
22 03:53 SE 6 10.00 Fair CLR 70 66.9 90% 30.08 1017.8
22 02:53 S 6 10.00 Fair CLR 71.1 66.9 87% 30.08 1017.8
22 01:53 SE 5 10.00 Fair CLR 71.1 68 90% 30.09 1018.0
22 00:53 SE 5 10.00 Fair CLR 73 69.1 88 72 87% 30.09 1018.2
21 23:53 S 5 10.00 Fair CLR 73.9 69.1 85% 30.09 1018.2
21 22:53 S 3 10.00 Fair CLR 75.9 70 82% 77 30.09 1018.2
21 21:53 S 3 10.00 Fair CLR 75.9 69.1 79% 77 30.07 1017.6
21 20:53 Calm 10.00 Fair CLR 80.1 69.1 69% 83 30.07 1017.4
21 19:53 SE 5 10.00 Fair CLR 84.9 68 57% 88 30.07 1017.5
21 18:53 SE 6 10.00 Fair CLR 88 66.9 90 86 50% 91 30.09 1018.0
21 17:53 S 6 10.00 Fair CLR 89.1 66.9 48% 92 30.1 1018.4
21 16:53 SE 7 10.00 A Few Clouds FEW055 90 66.9 47% 93 30.12 1019.2
21 15:53 SE 9 10.00 A Few Clouds FEW070 89.1 68 50% 93 30.14 1019.8
21 14:53 SE 9 10.00 A Few Clouds FEW049 FEW065 90 69.1 50% 95 30.16 1020.4
21 13:53 Vrbl 7 10.00 A Few Clouds FEW070 89.1 69.1 52% 94 30.18 1021.1
21 12:53 S 6 10.00 A Few Clouds FEW040 84.9 69.1 88 73.9 59% 89 30.2 1021.9
21 11:53 Calm 10.00 Fair CLR 86 70 59% 91 30.22 1022.4
21 10:53 S 8 10.00 Fair CLR 84 70 63% 88 30.23 1022.9
21 09:53 SE 8 10.00 Fair CLR 80.1 71.1 74% 84 30.23 1023.0
21 08:53 SE 6 10.00 Fair CLR 78.1 70 76% 80 30.24 1023.0
21 07:53 SE 7 10.00 Fair CLR 77 69.1 77% 79 30.23 1022.8
21 06:53 SE 5 10.00 Partly Cloudy SCT090 73.9 69.1 79 73 85% 30.22 1022.7
21 05:53 Calm 10.00 Mostly Cloudy BKN080 BKN090 73.9 69.1 85% 30.22 1022.6
21 04:53 SE 7 10.00 Mostly Cloudy BKN095 75.9 70 82% 77 30.21 1022.1
21 03:53 SE 7 10.00 Overcast OVC075 77 71.1 82% 79 30.2 1021.9
21 02:53 SE 6 10.00 Mostly Cloudy BKN065 78.1 72 82% 80 30.2 1021.9
21 01:53 SE 6 10.00 Overcast BKN050 OVC060 79 72 79% 82 30.21 1022.0
Date Time (cdt) Wind (mph) Vis. (mi.) Weather Sky Cond. Air Dwpt Max. Min. Relative Humidity Wind Chill (°F) Heat Index (°F) altimeter (in) sea level (mb) 1 hr 3 hr 6 hr
6 hour
Temperature (ºF) Pressure Precipitation (in)